Temp
59 58 58 58 57 57 57 57 56 56 56 56 56 56 56 56 56 56 56 56 56 56 57 57 58 59 67 70 68 81 70 75 81 80 76 75 74 74 71 71 72 71 71 73 73 72 73
58 58 58 58 57 57 57 57 56 56 56 55 56 56 55 55 56 56 56 56 56 56 56 57 58 59 70 64 79 81 79 79 79 79 77 78 74 77 70 68 70 68 70 70 72 71 71
58 58 58 57 57 57 56 56 56 56 55 56 56 55 55 55 55 55 56 56 55 56 57 58 59 67 72 66 79 82 78 76 77 77 74 75 76 74 73 67 69 67 66 68 69 70 66
58 58 58 57 57 56 56 56 56 56 55 55 55 55 54 54 54 54 55 55 55 58 58 59 60 69 65 78 83 79 80 77 79 79 77 76 78 72 70 70 67 65 67 65 65 67 68
58 58 57 57 57 56 56 56 55 55 55 55 55 55 54 54 54 54 54 55 56 58 60 61 68 72 64 76 74 77 78 72 75 77 77 76 75 68 68 67 65 64 61 59 60 67 66
58 58 57 57 56 56 56 56 56 55 55 55 55 54 54 54 54 54 53 54 59 61 67 72 73 68 70 66 72 74 77 75 70 71 71 69 71 68 69 67 61 57 58 59 56 61 66
58 58 57 57 56 57 56 56 56 55 54 54 54 54 54 54 54 53 60 71 67 65 69 63 63 65 68 73 76 74 74 74 72 68 61 63 65 57 57 61 62 61 60 58 59 61 62
57 57 58 56 57 57 56 56 55 55 55 54 54 53 53 53 53 54 63 64 55 60 59 65 65 67 69 71 65 70 77 65 64 59 63 62 52 57 60 60 59 60 59 55 59 60 64
57 57 57 57 56 57 57 55 55 54 54 54 53 53 53 53 53 60 61 56 61 60 62 62 65 66 67 71 62 64 71 67 63 59 60 57 54 59 59 57 57 56 55 54 54 58 63
56 56 56 56 56 56 56 55 54 54 53 53 53 52 52 52 54 60 58 60 62 60 56 55 60 64 67 68 59 69 69 65 60 57 58 55 58 57 57 53 58 53 56 53 52 57 54
54 55 55 56 56 55 55 55 54 54 53 53 52 52 52 51 56 61 57 61 62 59 35 57 59 71 67 62 63 62 70 66 57 55 57 50 54 54 53 51 55 51 55 54 54 56 57
53 54 54 55 55 55 54 54 54 53 53 52 52 52 52 57 59 58 60 60 60 46 34 51 59 58 58 59 58 62 61 66 65 59 60 55 59 57 55 56 56 57 56 56 56 55 49
53 53 53 53 54 54 54 54 54 53 52 52 52 52 53 57 57 59 60 59 44 34 54 48 51 56 57 53 53 55 55 54 54 48 48 54 52 56 57 54 58 58 54 49 47 48 47
52 52 52 53 53 53 54 54 54 53 52 52 51 50 54 58 63 58 58 52 34 46 51 55 55 55 51 53 50 51 51 50 52 53 52 49 42 52 55 53 52 52 52 50 36 45 47
51 51 51 52 52 52 53 54 53 53 52 51 51 56 55 59 58 58 54 35 41 51 54 51 54 49 47 50 51 50 49 49 50 52 50 47 43 53 53 55 55 51 51 53 43 44 44
50 51 51 51 51 52 51 53 53 52 51 50 52 53 55 56 57 55 48 36 49 55 57 56 49 52 47 49 48 49 48 49 48 51 54 49 42 49 51 56 55 54 56 45 48 37 36
49 50 50 51 51 51 51 52 52 52 51 49 49 48 53 55 56 52 34 42 49 56 58 54 50 47 51 47 51 48 46 47 52 49 54 53 50 44 50 49 49 50 49 49 50 45 42
49 49 50 50 50 51 51 50 52 52 51 49 47 36 52 55 44 45 35 49 50 54 56 52 54 51 50 50 47 47 45 49 53 53 47 48 50 44 44 50 53 52 48 49 45 40 45
49 49 49 49 50 50 51 51 51 51 51 51 41 44 52 51 33 33 44 48 53 52 52 51 49 52 52 49 43 47 47 50 52 51 48 49 46 39 40 46 49 47 49 48 46 46 42
48 48 49 49 50 50 51 51 49 51 51 52 40 32 42 47 45 45 45 47 46 53 53 52 51 52 50 47 49 44 44 47 51 51 46 50 46 42 43 44 48 42 45 48 46 38 41
48 48 48 48 50 50 50 51 48 51 50 49 38 36 46 32 33 42 49 49 47 44 52 53 48 52 50 43 45 45 46 45 48 46 48 49 38 42 44 44 44 44 45 45 43 45 37
48 47 48 47 49 50 50 51 50 50 50 44 35 36 43 46 46 43 44 39 48 49 49 47 48 51 52 47 50 43 47 47 45 47 46 47 38 41 35 42 43 40 45 46 46 46 46
47 47 48 47 49 50 50 50 49 48 48 39 48 44 43 44 43 41 42 47 49 51 49 55 54 51 49 50 54 56 55 54 51 46 45 44 42 38 35 40 40 33 40 46 47 48 47
46 47 47 47 48 49 49 49 49 45 49 51 50 46 40 36 43 43 48 50 49 50 47 51 55 51 50 56 55 54 51 50 50 48 51 43 42 41 36 38 26 44 50 51 49 50 52
45 46 47 46 46 47 48 49 48 43 49 49 52 47 42 36 44 44 46 48 51 50 48 50 53 56 57 53 44 38 38 39 42 46 45 48 44 32 30 35 43 44 45 46 46 47 53
44 45 46 45 44 46 48 48 48 45 48 47 51 52 46 38 39 50 46 49 45 46 45 44 50 55 55 49 40 31 31 40 34 36 43 44 46 38 31 29 30 44 49 54 52 40 56
45 45 45 44 43 46 48 48 47 46 48 46 48 51 45 37 49 49 45 45 53 49 43 43 44 45 50 42 33 35 37 47 34 34 32 35 37 31 33 31 40 51 51 54 37 45 54
45 45 44 44 42 44 48 47 47 47 48 45 45 51 42 40 46 46 49 50 50 49 41 46 43 42 43 36 38 35 38 41 42 44 38 37 33 32 36 29 28 53 49 42 51 54 54
44 45 44 43 43 43 47 47 47 47 48 47 40 51 51 39 42 44 48 50 54 56 51 47 47 45 47 42 41 41 35 39 43 34 45 37 46 40 41 42 50 54 52 56 56 54 53
MSLP
1027.18 1026.96 1026.87 1026.65 1026.58 1026.54 1026.32 1026.08 1025.82 1025.68 1025.40 1024.88 1024.30 1023.68 1023.19 1022.69 1022.07 1021.44 1020.88 1020.23 1019.71 1019.27 1018.94 1018.59 1018.15 1018.02 1017.41 1015.76 1015.42 1015.34 1015.49 1015.02 1014.31 1013.80 1013.13 1012.50 1011.89 1011.61 1011.41 1011.85 1011.99 1011.93 1012.77 1013.19 1013.61 1013.71 1013.66
1027.17 1026.92 1026.73 1026.71 1026.63 1026.49 1026.26 1026.05 1025.87 1025.53 1025.19 1024.83 1024.18 1023.52 1023.12 1022.53 1021.88 1021.32 1020.70 1019.99 1019.36 1018.81 1018.54 1018.38 1017.99 1017.89 1016.73 1015.38 1015.45 1015.49 1015.36 1014.82 1014.27 1013.59 1013.28 1012.69 1012.48 1012.25 1012.36 1012.72 1012.52 1013.56 1013.56 1013.70 1014.00 1014.16 1014.19
1026.98 1026.80 1026.57 1026.57 1026.46 1026.38 1026.13 1026.02 1025.81 1025.41 1025.19 1024.74 1024.12 1023.54 1023.03 1022.40 1021.67 1021.03 1020.33 1019.62 1019.11 1018.55 1018.29 1018.10 1017.88 1017.21 1015.64 1015.80 1015.76 1015.37 1015.18 1015.12 1014.67 1014.16 1013.65 1013.79 1013.32 1012.66 1012.95 1013.21 1014.13 1014.21 1013.69 1013.90 1014.43 1014.28 1014.56
1026.78 1026.69 1026.50 1026.43 1026.42 1026.26 1026.11 1025.89 1025.73 1025.40 1025.17 1024.80 1024.16 1023.53 1022.95 1022.24 1021.45 1020.66 1019.89 1019.21 1018.70 1018.24 1017.95 1017.97 1017.75 1016.81 1015.67 1015.75 1015.62 1015.44 1015.07 1014.94 1014.64 1014.57 1014.26 1014.18 1013.85 1013.54 1013.58 1014.22 1014.14 1013.87 1013.80 1013.29 1015.07 1014.95 1014.72
1026.70 1026.53 1026.43 1026.36 1026.24 1026.14 1025.90 1025.73 1025.61 1025.28 1025.02 1024.64 1024.08 1023.52 1022.89 1022.06 1021.26 1020.40 1019.61 1018.90 1018.39 1018.20 1017.84 1017.59 1017.14 1015.91 1015.49 1015.64 1015.44 1015.53 1015.43 1014.90 1014.86 1014.75 1014.60 1014.46 1013.99 1013.89 1014.30 1013.28 1013.11 1013.64 1013.28 1014.11 1014.84 1015.51 1014.71
1026.35 1026.25 1026.35 1026.23 1026.13 1025.92 1025.72 1025.55 1025.35 1025.12 1024.87 1024.56 1024.04 1023.47 1022.73 1021.91 1021.03 1020.20 1019.26 1018.68 1018.01 1017.71 1017.30 1016.97 1016.66 1015.81 1015.69 1015.66 1015.81 1015.60 1015.53 1015.16 1014.99 1014.87 1014.26 1014.28 1013.81 1013.40 1013.42 1012.93 1011.87 1013.20 1013.77 1014.62 1015.32 1016.31 1015.49
1026.15 1026.01 1025.99 1026.00 1025.84 1025.71 1025.57 1025.35 1025.15 1024.94 1024.66 1024.31 1023.84 1023.30 1022.62 1021.86 1020.95 1020.09 1018.66 1017.90 1017.91 1017.65 1016.87 1016.77 1016.47 1015.58 1015.78 1015.98 1015.85 1015.37 1015.59 1015.14 1014.98 1014.68 1014.26 1014.80 1013.57 1014.37 1014.96 1014.44 1014.38 1014.29 1014.43 1015.12 1016.12 1016.75 1015.97
1025.90 1025.74 1025.65 1025.67 1025.56 1025.39 1025.34 1025.22 1024.98 1024.78 1024.39 1024.05 1023.69 1023.23 1022.61 1021.81 1020.96 1020.06 1019.01 1018.24 1019.27 1019.56 1018.14 1017.31 1016.72 1016.27 1016.47 1016.14 1015.50 1015.57 1015.25 1015.14 1014.73 1014.72 1014.97 1014.94 1015.47 1016.51 1016.32 1015.84 1015.49 1015.07 1014.98 1015.94 1016.59 1016.89 1015.84
1025.80 1025.57 1025.37 1025.25 1025.25 1025.11 1024.95 1025.05 1024.87 1024.70 1024.37 1024.06 1023.72 1023.24 1022.56 1021.79 1020.83 1020.06 1019.48 1019.92 1020.12 1019.91 1017.88 1017.36 1016.89 1016.31 1016.33 1016.10 1016.19 1016.15 1015.75 1015.58 1015.11 1015.09 1015.10 1015.11 1017.14 1017.31 1016.70 1016.50 1015.98 1016.15 1016.20 1016.58 1016.64 1016.95 1016.52
1025.72 1025.47 1025.22 1024.99 1024.81 1024.76 1024.71 1024.61 1024.66 1024.54 1024.38 1024.07 1023.66 1023.22 1022.68 1021.79 1021.16 1020.38 1019.98 1020.46 1020.28 1020.08 1017.81 1017.35 1016.68 1016.56 1016.54 1016.32 1016.57 1016.96 1016.81 1016.27 1016.11 1016.09 1016.29 1016.96 1017.92 1017.47 1017.17 1017.18 1016.66 1016.63 1017.69 1017.53 1017.03 1015.92 1015.59
1025.81 1025.40 1025.04 1024.76 1024.53 1024.44 1024.35 1024.31 1024.22 1024.23 1024.20 1023.99 1023.63 1023.18 1022.74 1022.39 1021.18 1020.14 1020.69 1020.49 1020.27 1019.63 1017.72 1017.04 1016.48 1016.72 1016.57 1016.41 1016.56 1016.91 1017.17 1016.14 1016.21 1016.65 1016.86 1017.76 1018.01 1017.78 1017.70 1018.24 1018.15 1017.84 1017.97 1017.42 1016.98 1015.92 1015.69
1025.93 1025.42 1024.93 1024.56 1024.28 1024.12 1024.09 1023.92 1023.86 1023.92 1023.88 1023.77 1023.45 1023.11 1022.73 1021.66 1021.21 1021.01 1020.78 1020.41 1020.01 1018.99 1016.86 1016.51 1016.14 1016.21 1016.34 1016.73 1017.07 1017.22 1017.19 1017.24 1017.38 1016.81 1017.20 1018.15 1018.94 1018.74 1018.83 1019.02 1018.58 1018.23 1017.54 1017.18 1016.79 1016.25 1015.55
1025.84 1025.39 1024.92 1024.37 1024.03 1023.79 1023.62 1023.62 1023.53 1023.51 1023.57 1023.48 1023.28 1022.95 1022.58 1021.95 1020.95 1021.26 1020.88 1019.87 1019.20 1017.61 1016.54 1016.11 1015.81 1016.15 1016.23 1016.86 1017.42 1017.49 1017.29 1017.49 1016.82 1017.28 1017.54 1018.48 1019.14 1019.47 1019.45 1018.71 1018.27 1017.51 1017.00 1015.95 1015.47 1015.32 1015.54
1025.82 1025.35 1024.93 1024.35 1023.88 1023.50 1023.28 1023.12 1023.21 1023.16 1023.21 1023.22 1023.05 1022.77 1021.79 1021.32 1021.25 1021.28 1020.47 1019.13 1017.77 1015.94 1015.19 1015.59 1015.54 1016.15 1016.24 1017.04 1017.81 1018.03 1017.80 1017.65 1018.13 1017.46 1017.23 1017.52 1019.33 1019.37 1019.77 1019.07 1018.28 1017.96 1017.24 1015.88 1015.61 1015.53 1015.93
1025.60 1025.21 1024.77 1024.28 1023.77 1023.33 1022.99 1022.75 1022.79 1022.85 1022.98 1023.05 1022.86 1021.81 1021.34 1020.73 1021.21 1021.24 1020.03 1018.42 1015.62 1014.57 1014.67 1014.99 1015.72 1015.79 1016.42 1017.23 1017.40 1017.89 1017.97 1018.02 1018.49 1018.43 1017.41 1017.79 1019.06 1020.12 1020.13 1019.85 1019.38 1018.46 1017.58 1018.08 1017.29 1017.58 1016.97
1025.47 1024.82 1024.34 1023.95 1023.53 1023.01 1022.76 1022.37 1022.40 1022.55 1022.74 1022.99 1022.45 1021.56 1020.47 1021.01 1021.09 1020.72 1019.38 1017.17 1015.46 1014.71 1014.30 1014.56 1014.19 1014.88 1015.31 1016.47 1017.19 1017.58 1018.23 1019.03 1019.10 1019.20 1018.93 1018.50 1019.15 1020.32 1020.49 1020.17 1019.83 1018.55 1018.96 1018.38 1018.00 1017.22 1016.65
1025.11 1024.48 1023.85 1023.35 1022.89 1022.57 1022.17 1021.98 1021.95 1022.21 1022.50 1022.90 1022.53 1020.93 1020.68 1021.05 1020.95 1019.97 1018.60 1016.69 1015.45 1015.10 1014.56 1014.51 1014.44 1014.91 1015.02 1016.01 1016.59 1017.30 1018.25 1019.50 1019.46 1019.61 1019.24 1018.84 1018.55 1020.45 1020.56 1019.88 1019.22 1019.56 1018.98 1018.90 1018.52 1018.45 1017.33
1024.34 1023.85 1023.06 1022.46 1022.14 1021.83 1021.54 1021.54 1021.33 1021.69 1022.35 1022.60 1022.09 1020.76 1020.50 1020.82 1020.13 1019.02 1017.65 1016.15 1015.27 1014.80 1015.00 1014.76 1014.64 1014.82 1015.14 1015.94 1016.58 1017.24 1017.97 1018.59 1019.63 1019.67 1019.48 1019.89 1019.16 1019.30 1020.17 1020.71 1020.65 1020.01 1019.69 1019.33 1018.54 1019.05 1018.84
1023.40 1022.87 1022.04 1021.53 1020.89 1020.67 1020.65 1020.58 1020.43 1020.88 1021.52 1021.75 1021.21 1020.09 1020.45 1020.44 1019.03 1018.37 1017.08 1015.94 1015.06 1014.65 1014.50 1014.56 1014.60 1014.77 1015.36 1015.55 1016.46 1017.45 1018.43 1019.71 1020.01 1019.96 1019.96 1019.98 1019.54 1019.67 1020.48 1021.00 1020.93 1020.31 1020.44 1020.53 1020.47 1020.26 1019.17
1022.60 1021.88 1021.07 1019.91 1019.46 1019.31 1019.43 1019.61 1019.96 1019.85 1020.68 1020.95 1021.05 1020.01 1019.53 1019.47 1018.48 1016.88 1015.92 1015.00 1014.78 1014.52 1014.24 1014.39 1014.54 1014.92 1015.21 1015.84 1016.39 1017.34 1018.65 1020.09 1020.45 1020.52 1020.91 1020.50 1019.91 1019.47 1019.25 1019.43 1019.70 1020.37 1020.58 1020.84 1020.69 1020.48 1019.48
1021.94 1021.09 1019.98 1019.05 1018.32 1018.04 1018.16 1018.38 1019.01 1018.66 1019.74 1020.31 1020.43 1018.22 1016.49 1017.19 1017.25 1016.35 1014.99 1014.17 1013.69 1013.82 1013.99 1014.25 1014.49 1013.99 1014.15 1015.25 1016.21 1016.97 1018.38 1019.83 1020.70 1021.24 1021.17 1020.81 1020.55 1020.61 1020.63 1020.89 1020.97 1020.73 1020.72 1020.83 1020.57 1020.27 1019.99
1021.30 1020.27 1019.15 1018.29 1017.24 1016.91 1017.07 1017.27 1017.08 1017.60 1018.69 1019.22 1018.77 1017.95 1016.98 1015.54 1015.27 1015.52 1014.36 1013.37 1012.55 1012.71 1012.94 1013.31 1013.34 1013.82 1014.30 1014.53 1014.75 1015.94 1017.16 1018.26 1019.24 1020.98 1021.14 1021.43 1021.33 1021.32 1021.31 1021.36 1021.35 1020.98 1020.66 1020.38 1020.25 1020.01 1019.58
1020.55 1019.56 1018.48 1017.62 1016.37 1016.00 1016.05 1016.24 1016.65 1016.88 1017.13 1017.13 1017.18 1017.84 1016.88 1014.46 1014.26 1014.14 1012.57 1012.04 1011.86 1012.33 1013.12 1012.73 1013.09 1013.85 1014.84 1015.44 1015.70 1016.05 1017.27 1017.96 1018.92 1019.94 1020.60 1021.22 1021.33 1021.58 1021.18 1021.47 1021.22 1020.52 1019.31 1019.13 1019.26 1019.21 1019.18
1019.73 1018.80 1017.68 1016.76 1015.80 1015.25 1015.08 1015.13 1015.46 1016.67 1015.05 1015.52 1015.91 1016.91 1016.08 1014.12 1013.09 1012.35 1012.19 1011.86 1011.64 1012.11 1012.36 1013.31 1013.47 1013.97 1016.10 1016.56 1017.13 1018.02 1018.66 1019.18 1019.79 1020.46 1020.66 1020.97 1021.33 1021.66 1021.35 1021.51 1020.58 1018.63 1018.66 1018.26 1018.35 1018.54 1018.81
1019.03 1017.92 1016.86 1016.02 1015.23 1014.31 1013.89 1013.82 1014.11 1015.16 1014.30 1014.85 1015.07 1015.52 1015.08 1013.49 1012.66 1012.27 1011.95 1011.67 1011.90 1012.79 1012.91 1013.26 1014.17 1014.53 1015.76 1016.10 1017.26 1018.63 1019.50 1019.97 1020.40 1020.87 1021.23 1021.24 1021.29 1021.91 1021.66 1020.52 1018.56 1018.35 1018.47 1018.10 1017.91 1017.85 1018.27
1018.21 1016.98 1015.79 1014.90 1014.07 1013.01 1012.12 1012.39 1012.85 1013.78 1013.63 1014.06 1014.23 1014.71 1014.99 1014.12 1012.04 1011.45 1011.68 1011.37 1011.19 1012.08 1013.59 1014.74 1015.59 1015.81 1015.85 1016.13 1017.10 1017.63 1018.09 1018.22 1019.63 1020.90 1021.73 1021.85 1021.75 1021.72 1021.75 1020.19 1018.11 1017.49 1018.00 1018.20 1018.58 1017.44 1017.31
1017.03 1015.99 1014.76 1013.80 1012.46 1010.85 1010.41 1010.67 1011.32 1012.27 1012.36 1012.87 1013.37 1014.17 1014.68 1014.10 1012.05 1011.71 1011.16 1010.89 1010.79 1011.58 1012.82 1014.57 1015.59 1016.43 1016.49 1016.16 1016.93 1017.17 1017.04 1016.99 1018.04 1018.90 1020.33 1021.16 1021.50 1021.31 1020.82 1019.68 1017.88 1017.31 1018.15 1018.54 1018.38 1017.40 1017.75
1016.00 1014.90 1013.65 1012.49 1011.26 1009.66 1008.86 1009.36 1010.13 1010.73 1010.99 1011.73 1012.45 1013.20 1013.99 1013.90 1012.72 1012.62 1011.96 1011.00 1011.18 1011.26 1011.56 1013.45 1015.14 1016.06 1016.09 1016.17 1016.31 1016.71 1016.60 1016.74 1016.75 1017.21 1018.15 1018.55 1019.46 1019.82 1019.93 1019.20 1017.55 1017.03 1018.32 1017.86 1017.15 1017.72 1018.28
1014.95 1013.80 1012.56 1011.33 1009.87 1008.87 1007.58 1008.07 1008.46 1008.99 1009.32 1010.97 1011.88 1012.57 1013.51 1014.48 1013.60 1013.35 1012.69 1012.47 1011.85 1011.20 1011.30 1012.83 1012.35 1013.23 1014.21 1014.83 1015.77 1016.13 1016.54 1016.66 1015.88 1016.54 1017.54 1017.23 1016.52 1017.04 1017.29 1016.56 1016.60 1016.58 1016.64 1017.08 1017.53 1017.86 1018.52
Wind_Speed
14 13 13 10 9 12 12 12 12 13 15 16 17 18 18 18 18 18 19 19 18 17 15 13 10 11 7 4 4 8 12 8 4 3 4 2 3 3 7 6 6 7 6 7 6 4 13
11 12 11 11 11 11 12 14 13 14 15 16 18 18 19 19 19 19 19 19 17 16 13 11 8 10 5 4 5 8 9 5 6 4 8 4 4 6 9 6 2 4 5 8 8 9 9
10 11 13 11 10 11 11 13 13 14 16 17 18 19 20 20 20 20 20 18 16 12 8 8 7 5 7 6 4 6 6 5 5 5 9 7 4 2 6 9 5 5 6 5 14 11 6
9 10 11 10 9 11 12 13 14 14 15 17 18 19 20 20 21 21 21 18 13 10 6 6 6 5 6 2 3 8 4 6 7 6 8 5 6 9 4 9 6 4 3 7 12 15 7
10 10 9 10 12 11 12 12 14 14 16 17 19 19 20 20 20 21 20 18 9 9 7 8 4 4 8 1 4 6 7 4 8 8 7 5 6 5 7 9 8 2 7 7 8 17 4
11 11 8 7 9 12 11 14 13 13 14 17 19 20 20 20 20 21 21 8 5 9 5 4 2 6 3 5 4 4 4 4 4 5 6 4 4 7 7 7 4 9 9 9 9 12 13
13 11 8 7 8 11 12 13 14 14 15 16 19 21 21 21 21 20 11 3 5 5 4 5 5 6 7 2 1 8 4 7 4 4 6 5 9 11 12 12 12 11 12 14 11 7 8
12 11 12 8 9 8 12 12 13 16 15 16 18 20 21 22 22 15 7 2 5 7 8 3 3 6 2 2 4 10 4 2 2 10 11 10 14 9 8 8 9 8 11 10 11 7 11
13 13 12 9 10 11 9 11 12 13 16 15 17 19 21 22 20 4 6 5 5 3 5 5 3 4 3 2 5 9 4 5 11 11 5 9 11 7 7 9 10 10 10 9 9 7 8
16 13 13 12 10 11 10 7 10 11 13 15 16 17 18 25 7 3 4 4 3 3 5 9 6 4 3 3 5 6 5 2 3 15 15 12 6 6 7 8 4 8 5 3 4 9 4
23 19 15 14 13 11 8 7 7 8 11 13 15 15 16 11 6 1 4 4 2 4 4 11 6 3 3 1 5 6 8 5 6 7 7 7 8 7 8 5 2 6 3 0 3 7 9
23 24 20 17 14 12 11 8 6 7 8 12 14 15 16 3 3 4 5 1 3 3 5 8 7 9 8 4 4 4 3 8 6 15 17 11 5 4 4 1 2 1 6 7 6 5 4
23 24 23 22 18 15 12 11 8 5 6 9 14 15 13 5 3 5 3 4 3 5 5 10 9 10 9 7 6 3 7 7 5 10 9 11 6 5 2 6 2 5 8 5 6 6 4
24 24 25 24 22 19 15 12 10 7 5 7 12 16 4 5 2 5 4 3 6 2 9 4 10 12 7 8 4 6 7 8 4 4 12 8 8 3 2 3 2 4 3 2 5 3 4
26 24 24 25 25 21 19 15 10 8 3 4 11 4 4 2 4 3 6 3 5 7 10 15 15 13 7 7 4 6 3 5 2 2 2 6 7 5 2 1 5 4 3 3 4 3 4
27 27 26 26 26 23 21 17 12 9 6 4 5 4 5 6 5 4 6 7 4 4 10 20 9 11 12 14 11 10 9 3 5 0 5 4 8 2 5 5 4 5 4 4 3 5 3
28 29 30 27 26 24 19 20 15 11 9 7 5 5 6 5 5 6 5 7 5 10 11 13 8 8 8 10 9 9 7 6 6 5 2 6 3 7 7 4 5 7 5 2 2 4 2
28 30 28 29 28 25 22 19 17 14 12 6 4 4 5 6 7 2 5 5 5 15 8 5 5 7 13 12 8 6 8 4 7 6 5 1 3 7 5 1 2 1 2 4 5 7 2
30 31 29 32 30 25 23 19 19 19 18 5 4 3 4 5 7 5 4 7 8 14 12 9 7 4 7 10 7 9 9 6 9 4 5 5 3 7 7 5 3 6 6 3 4 2 9
31 32 32 30 27 26 24 20 20 23 21 8 3 5 5 7 3 9 10 11 11 8 11 5 7 8 11 9 3 11 10 7 7 6 4 0 3 3 1 6 6 7 12 10 7 5 4
31 33 31 32 26 24 24 22 16 27 25 8 5 7 6 9 9 12 13 15 16 12 9 10 6 8 11 8 8 9 10 13 7 7 3 2 4 3 3 3 3 5 12 14 15 12 8
32 32 30 35 26 22 24 23 20 26 28 8 5 5 4 4 7 23 14 12 22 13 17 16 8 15 12 7 7 16 16 10 7 10 7 6 4 3 2 4 9 12 15 17 17 17 17
34 33 33 34 27 22 23 25 26 23 25 5 9 3 6 7 10 16 14 16 21 15 8 8 12 17 10 9 6 14 6 11 13 13 11 10 6 6 3 3 4 10 20 20 16 10 15
34 34 33 33 28 25 25 25 25 21 31 7 9 5 5 5 12 14 19 15 17 20 12 10 16 13 11 21 20 17 15 12 10 7 7 10 7 3 3 4 6 4 2 9 19 12 15
34 34 34 32 32 28 26 25 23 14 35 10 9 9 5 6 10 10 13 19 16 11 9 13 12 8 22 14 7 7 3 4 6 6 7 6 6 4 4 7 6 9 7 7 12 12 14
33 35 34 35 36 32 28 25 23 25 32 13 9 8 5 4 11 9 16 17 13 12 10 7 8 20 11 5 4 7 8 7 8 10 5 7 7 5 4 5 5 6 5 6 3 9 14
34 35 35 36 39 30 25 25 20 22 29 16 9 11 6 5 6 10 14 15 10 13 8 12 14 10 5 4 4 5 5 7 11 14 12 10 8 11 8 5 6 7 12 11 7 2 12
33 35 35 36 38 32 23 25 24 19 31 18 9 15 6 6 3 6 4 14 11 12 11 17 10 4 6 6 5 5 5 7 6 13 11 12 12 8 9 6 10 16 14 9 5 9 11
33 33 35 36 39 36 23 25 20 21 35 24 5 11 10 3 4 3 3 3 5 4 9 17 1 18 9 6 4 4 4 6 9 8 9 10 7 7 11 6 6 20 5 13 8 9 10
Wind_Direction
358 358 354 359 2 356 348 343 353 341 336 337 336 337 333 326 324 322 319 316 313 306 303 302 310 311 272 167 53 359 328 328 315 345 40 104 129 145 135 118 114 105 114 90 53 52 22
357 356 350 347 347 345 347 342 342 342 335 337 336 337 331 326 324 322 319 317 313 305 297 291 301 307 245 138 2 349 338 333 19 40 53 72 103 107 103 85 44 91 98 105 50 35 32
355 353 346 334 341 338 341 337 335 341 336 334 334 335 330 327 324 322 321 320 315 304 288 286 294 273 94 79 352 354 31 16 14 31 81 58 96 231 131 117 99 110 136 160 29 16 29
350 344 346 346 336 335 344 335 331 336 334 330 332 332 329 328 326 323 321 319 314 310 297 278 284 250 79 36 351 34 8 84 64 72 85 57 68 87 55 120 117 132 155 179 49 19 6
334 332 334 342 337 337 335 331 327 334 334 331 330 332 329 330 326 324 320 316 297 303 288 283 235 261 115 225 59 24 18 72 95 82 68 58 72 79 156 169 151 125 115 74 100 25 27
317 318 319 331 332 328 332 333 332 333 334 329 329 331 330 330 328 326 318 289 314 290 225 235 227 157 166 76 341 339 72 79 111 125 95 44 67 106 136 215 154 131 123 100 62 26 50
319 316 296 299 316 326 324 333 335 334 333 330 330 331 330 330 330 327 319 230 191 156 49 12 64 74 112 98 273 37 18 122 130 52 101 21 106 82 75 69 95 103 101 103 86 60 85
309 308 313 277 298 317 323 328 332 329 328 332 331 330 329 328 328 322 294 26 27 3 110 60 70 97 55 329 85 48 19 109 163 109 131 114 80 90 95 104 104 104 103 101 97 65 111
318 311 305 286 283 304 321 319 331 331 329 330 331 330 329 327 319 297 53 52 338 293 145 103 70 101 75 133 54 36 28 82 88 112 105 81 110 122 109 124 112 73 81 88 92 105 117
319 310 302 292 281 287 307 313 321 331 331 331 329 332 332 324 286 339 78 356 344 293 184 149 172 112 179 169 83 26 15 4 105 104 96 85 120 85 112 97 301 101 79 89 122 199 94
347 326 307 294 284 284 275 288 305 319 326 327 331 333 335 340 324 267 34 339 321 252 222 147 146 65 145 256 124 61 19 85 112 143 234 112 137 109 87 49 303 95 292 42 143 120 162
342 341 327 306 287 277 280 259 272 299 313 321 328 328 334 229 261 30 335 240 239 235 223 159 151 164 153 118 86 108 75 74 64 99 90 101 96 46 53 130 20 327 160 145 165 167 176
337 335 333 330 302 280 270 269 251 254 289 316 320 321 314 303 7 340 286 212 176 220 149 165 173 177 149 139 107 116 155 144 167 150 141 136 91 113 10 162 156 188 192 160 192 194 62
334 328 328 328 328 301 272 260 245 238 249 310 319 316 282 253 328 313 233 169 213 179 177 126 162 153 170 153 126 150 157 137 100 241 150 168 154 189 26 350 55 83 275 314 194 188 98
329 328 326 321 320 317 294 265 238 236 216 324 313 286 251 158 183 249 225 202 227 187 156 157 152 176 157 167 186 162 177 129 99 233 205 153 108 122 70 140 271 145 138 25 92 60 239
323 316 320 317 308 307 312 274 237 216 175 70 304 279 228 137 166 201 220 248 215 184 156 163 166 199 174 172 172 198 176 165 134 174 274 159 131 159 134 190 89 314 116 180 190 195 209
318 317 312 311 302 296 290 295 238 201 167 116 265 234 103 158 195 204 216 238 188 180 166 181 178 156 177 162 183 165 155 155 193 139 178 165 237 141 194 219 154 160 169 181 44 308 282
315 313 305 306 299 287 282 295 231 187 152 157 266 220 119 196 187 210 203 209 196 167 187 152 160 120 164 159 157 152 158 135 167 161 148 95 100 129 90 98 272 225 158 243 265 166 240
317 318 310 303 291 277 270 260 243 180 171 145 246 222 142 231 198 208 214 201 202 173 184 170 158 173 170 161 132 138 131 129 151 154 159 165 145 129 134 147 190 217 173 169 122 16 221
323 319 316 304 286 271 258 247 279 181 179 184 265 200 162 208 226 223 194 190 177 198 175 168 130 135 144 148 122 150 132 149 156 122 73 116 144 310 159 69 135 190 192 199 213 208 242
324 323 320 313 291 266 251 243 258 183 174 187 208 242 188 179 213 220 203 187 177 172 209 180 177 201 164 141 142 148 136 134 146 136 136 220 168 190 207 182 198 207 199 204 215 225 226
325 321 323 320 297 263 247 242 226 197 172 200 187 227 206 196 197 201 200 219 190 170 170 189 222 180 171 161 179 173 157 167 162 166 166 181 148 180 256 220 226 234 229 232 232 240 248
321 321 321 322 299 274 250 234 215 227 170 172 187 279 280 176 180 190 201 196 199 167 194 221 185 159 167 111 95 121 122 128 139 155 157 166 154 177 183 186 262 255 228 216 223 226 232
321 322 319 323 308 288 260 242 221 270 181 192 189 208 229 228 196 201 205 201 196 192 154 163 167 157 108 119 104 89 86 102 120 122 152 157 171 161 158 183 234 71 107 214 220 228 223
321 319 319 317 311 293 273 250 237 244 193 204 163 197 235 239 202 199 208 194 175 148 136 154 156 120 154 127 110 113 93 115 157 154 155 178 159 154 201 215 318 192 202 176 185 227 222
320 322 319 319 314 295 269 247 232 210 220 182 189 188 215 271 219 191 188 187 163 152 136 118 131 149 152 136 130 164 174 170 165 159 204 185 227 223 193 231 224 81 136 178 156 267 193
320 322 319 320 318 292 250 226 226 218 225 175 192 175 191 240 255 186 188 194 170 161 130 135 150 166 223 146 141 167 165 162 165 168 167 165 191 204 207 244 281 153 147 152 189 97 159
320 321 322 319 322 314 243 210 219 228 217 173 187 184 152 220 239 219 196 178 176 172 159 148 132 212 172 179 174 170 168 190 167 156 172 169 169 186 209 211 251 158 155 199 112 137 161
318 318 322 321 318 317 256 214 230 265 192 167 157 176 172 234 329 311 291 299 257 186 140 178 141 158 158 159 189 139 152 168 171 184 197 201 200 178 197 209 120 175 157 191 179 168 177